Norfolk, VA

6:33 AM EDT on May 26, 2017 (GMT -0400)
Norfolk International

Weather History for KORF - July, 2013

Change the Weather History Date:

Tuesday, July 23, 2013

  Actual Average Record
Temperature  
Mean Temperature 83 °F 80 °F  
Max Temperature 90 °F 88 °F 103 °F (1952)
Min Temperature 76 °F 72 °F 60 °F (1966)
Degree Days  
Heating Degree Days 0 0  
Month to date heating degree days 0 0  
Since 1 June heating degree days 0 6  
Since 1 July heating degree days 0 0  
Cooling Degree Days 18 15  
Month to date cooling degree days 399 339  
Year to date cooling degree days 982 820  
Since 1 June cooling degree days 761 654  
Growing Degree Days 32 (Base 50)    
Moisture  
Dew Point 72 °F    
Average Humidity 73    
Maximum Humidity 94    
Minimum Humidity 52    
Precipitation  
Precipitation 0.00 in 0.19 in 1.86 in (1927)
Month to date precipitation 7.08 3.63  
Year to date precipitation 27.12 24.91  
Snow  
Snow 0.00 in 0.00 in 0.00 in (2002)
Month to date snowfall 0.0 0.0  
Since 1 July snowfall 0.0 0.0  
Snow Depth 0.00 in    
Sea Level Pressure  
Sea Level Pressure 29.74 in    
Wind  
Wind Speed 10 mph (SW)    
Max Wind Speed 18 mph    
Max Gust Speed 24 mph    
Visibility 10 miles    
Events      
T = Trace of Precipitation, MM = Missing Value Source: NWS Daily Summary

Daily Weather History Graph

Daily Weather History Graph

Search for Another Location

Airport or City:

Trip Planner

Search our weather history database for the weather conditions in past years. The results will help you decide how hot, cold, wet, or windy it might be!

Date:

Astronomy

Jul. 23, 2013 Rise Set
Actual Time 6:03 AM EDT 8:18 PM EDT
Civil Twilight 5:33 AM EDT 8:48 PM EDT
Nautical Twilight 4:57 AM EDT 9:24 PM EDT
Astronomical Twilight 4:18 AM EDT 10:03 PM EDT
Moon 8:49 PM EDT (7/23) 7:06 AM EDT (7/23)
Length of Visible Light 15h 14m
Length of Day
14h 15m
Full, 99% of the Moon is Illuminated
Jul 23
Full
Jul 29
Last Quarter
Aug 6
New
Aug 14
First Quarter
Aug 20
Full

Hourly Weather History & Observations

Time (EDT) Temp. Heat Index Dew Point Humidity Pressure Visibility Wind Dir Wind Speed Gust Speed Precip Events Conditions
12:51 AM 75.9 °F - 73.9 °F 94% 29.81 in 10.0 mi South 4.6 mph - N/A   Clear
1:51 AM 77.0 °F - 73.9 °F 90% 29.79 in 10.0 mi SSW 8.1 mph - N/A   Mostly Cloudy
2:51 AM 77.0 °F - 73.9 °F 90% 29.78 in 10.0 mi SSW 9.2 mph - N/A   Partly Cloudy
3:51 AM 77.0 °F - 73.0 °F 88% 29.77 in 10.0 mi SW 10.4 mph - N/A   Partly Cloudy
4:51 AM 75.9 °F - 73.0 °F 91% 29.75 in 10.0 mi SW 10.4 mph - N/A   Clear
5:51 AM 75.9 °F - 73.0 °F 91% 29.76 in 10.0 mi SW 10.4 mph - N/A   Clear
6:51 AM 77.0 °F - 73.0 °F 88% 29.77 in 8.0 mi SSW 12.7 mph - N/A   Clear
7:51 AM 78.1 °F - 73.0 °F 84% 29.78 in 10.0 mi SW 16.1 mph - N/A   Clear
8:51 AM 80.1 °F 84.2 °F 73.0 °F 79% 29.76 in 10.0 mi SW 13.8 mph - N/A   Scattered Clouds
9:47 AM 82.4 °F 88.2 °F 73.4 °F 74% 29.75 in 10.0 mi SW 15.0 mph - N/A   Mostly Cloudy
9:51 AM 82.0 °F 87.9 °F 73.9 °F 76% 29.75 in 10.0 mi SW 18.4 mph - N/A   Mostly Cloudy
10:51 AM 81.0 °F 85.8 °F 73.0 °F 77% 29.75 in 10.0 mi SW 15.0 mph - N/A   Overcast
11:05 AM 82.4 °F 88.2 °F 73.4 °F 74% 29.74 in 10.0 mi SW 15.0 mph - N/A   Overcast
11:51 AM 84.0 °F 89.6 °F 72.0 °F 67% 29.73 in 10.0 mi SW 16.1 mph 20.7 mph N/A   Mostly Cloudy
12:51 PM 86.0 °F 93.0 °F 73.0 °F 65% 29.73 in 10.0 mi WSW 13.8 mph 20.7 mph N/A   Scattered Clouds
1:51 PM 87.1 °F 93.6 °F 72.0 °F 61% 29.72 in 10.0 mi SW 13.8 mph 19.6 mph N/A   Scattered Clouds
2:51 PM 87.1 °F 93.6 °F 72.0 °F 61% 29.71 in 10.0 mi WSW 10.4 mph - N/A   Scattered Clouds
3:51 PM 88.0 °F 93.8 °F 71.1 °F 57% 29.69 in 10.0 mi WSW 9.2 mph - N/A   Scattered Clouds
4:51 PM 89.1 °F 95.0 °F 71.1 °F 55% 29.68 in 10.0 mi WSW 4.6 mph - N/A   Partly Cloudy
5:51 PM 89.1 °F 94.1 °F 70.0 °F 53% 29.68 in 10.0 mi WSW 9.2 mph - N/A   Scattered Clouds
6:51 PM 88.0 °F 92.9 °F 70.0 °F 55% 29.68 in 10.0 mi WSW 10.4 mph - N/A   Partly Cloudy
7:51 PM 86.0 °F 91.5 °F 71.1 °F 61% 29.69 in 10.0 mi Variable 5.8 mph - N/A   Clear
8:51 PM 84.0 °F 89.0 °F 71.1 °F 65% 29.70 in 10.0 mi WSW 5.8 mph - N/A   Clear
9:51 PM 82.9 °F 87.5 °F 71.1 °F 67% 29.73 in 10.0 mi West 5.8 mph - N/A   Clear
10:51 PM 82.0 °F 86.7 °F 72.0 °F 71% 29.74 in 10.0 mi WSW 4.6 mph - N/A   Clear
11:51 PM 79.0 °F - 72.0 °F 79% 29.74 in 10.0 mi SW 4.6 mph - N/A   Clear